Location: Dannhausen
(51.8650°N, 10.1026°E)
Time: 02:26:09
(UTC+00:00)

SPOT 1/Viking Rocket - Pass Details

Date: 09 April 2020
Orbit: 776 x 795 km, 98.5° (Epoch: 03 June)

Event Time Altitude Azimuth Distance (km) Brightness Sun altitude
Exits shadow 19:50:08 24° 126° (SE) 1,615 4.5 -15.1°
Maximum altitude 19:53:00 46° 66° (ENE) 1,063 4.0 -15.5°
Drops below altitude 10° 19:57:59 10° 354° (N) 2,378 6.6 -16.1°
Sets 20:00:24 0° 349° (N) 3,312 7.6 -16.4°
